Theta_e
300 301 301 300 300 300 300 301 301 301 300 298 297 298 300 304 304 303 310 308 308 310 311 311 311 314 317 315 321 319 321 324 327 329 330 330 330 330 331 333 336 338 336 333 333 335 336 334 334 335 340 335 334 333
299 300 301 300 300 300 300 300 301 301 301 300 299 298 300 303 304 304 310 309 308 309 311 310 308 309 310 314 315 317 322 327 326 329 331 332 333 332 334 335 335 337 339 340 339 339 338 335 336 334 333 333 333 332
300 300 301 301 300 300 300 300 300 301 301 301 300 298 302 303 304 304 307 309 309 311 312 310 313 312 311 310 310 315 317 322 324 321 326 330 334 335 334 333 334 334 333 333 336 336 334 331 331 332 332 331 331 331
299 300 300 300 300 300 300 300 300 300 300 301 300 299 301 303 304 304 308 308 309 310 312 313 308 310 309 309 311 311 315 316 318 321 325 328 328 328 331 331 334 332 332 332 333 334 332 332 329 328 330 331 332 332
299 299 300 299 301 300 300 299 300 300 300 301 301 299 301 304 304 304 307 308 308 310 314 313 310 310 310 311 311 311 313 315 316 319 323 326 325 326 327 329 330 329 330 331 334 329 330 330 326 327 328 330 331 332
299 299 299 299 300 301 300 300 301 300 300 301 301 299 301 303 303 307 309 308 308 309 311 314 312 311 312 312 311 313 314 314 315 317 318 319 320 322 324 326 325 326 327 326 328 323 323 323 324 324 324 325 328 330
301 300 299 300 299 300 299 300 301 301 300 301 301 299 301 303 304 307 309 309 306 306 312 313 313 312 312 313 313 312 312 312 313 315 315 316 317 317 318 320 321 322 322 322 323 321 320 321 322 321 321 322 323 327
301 300 300 300 300 300 300 300 300 301 300 301 300 300 302 303 303 305 306 304 303 308 309 314 314 313 312 315 316 314 314 313 313 314 315 316 315 316 317 317 317 317 317 316 316 316 317 318 319 320 320 320 321 324
301 300 301 302 301 301 301 300 300 301 300 301 299 301 303 305 307 308 306 302 305 309 312 312 313 315 311 313 314 314 315 317 315 316 315 315 316 317 318 318 317 318 317 318 318 319 319 319 319 320 321 320 319 319
303 301 301 301 302 301 301 301 301 301 300 300 301 304 307 307 306 305 308 309 309 309 309 312 311 313 311 313 313 314 313 317 320 319 316 317 318 316 316 318 318 319 318 319 320 321 322 322 321 321 320 321 321 320
302 302 302 302 301 302 301 301 301 301 300 302 305 307 307 303 306 307 308 309 310 310 310 310 311 313 310 314 316 313 316 316 316 319 320 319 319 321 319 320 321 321 321 321 320 319 319 318 318 319 320 321 321 321
302 301 301 302 301 302 301 301 302 301 303 304 305 306 306 307 307 308 309 309 310 311 310 311 311 311 313 312 314 315 315 316 315 318 318 318 327 324 323 322 320 319 318 317 317 317 317 317 316 316 320 323 322 322
300 301 302 302 302 302 301 301 301 302 302 305 305 307 307 307 307 307 309 310 311 310 311 312 313 312 312 312 314 316 316 316 315 317 316 317 324 322 320 320 318 318 318 317 317 316 316 317 316 316 319 322 323 324
300 301 301 301 302 301 301 301 301 302 302 305 305 309 307 307 307 309 309 310 310 311 312 311 312 314 313 314 315 316 316 315 316 316 317 321 317 317 316 317 318 317 316 316 317 317 317 317 318 319 321 323 326 326
300 300 300 301 301 301 301 301 300 302 303 304 305 309 308 307 307 308 308 309 309 311 311 311 312 312 314 314 315 315 316 316 317 319 320 316 315 315 315 316 316 318 317 318 318 318 319 319 322 325 325 325 325 326
300 300 301 300 300 301 301 300 301 303 304 304 305 307 307 307 307 307 308 308 309 310 310 311 313 313 313 314 313 315 316 317 319 316 315 314 314 314 316 317 318 318 319 320 320 322 322 323 323 324 325 325 325 324
301 301 301 301 301 301 300 302 303 303 304 304 306 306 307 308 308 307 308 308 309 311 313 313 314 313 313 313 314 315 318 318 314 313 312 313 312 314 316 317 317 317 317 321 322 322 322 322 323 323 323 323 323 322
302 301 301 300 300 301 302 303 304 304 304 305 307 306 306 308 308 308 308 308 309 311 312 314 313 314 315 314 316 317 315 311 311 312 314 317 316 312 311 312 314 315 314 317 320 321 322 321 321 321 323 322 321 321
302 300 300 301 302 304 304 304 305 305 306 306 306 306 307 307 308 308 308 308 310 311 312 312 314 314 314 315 314 314 313 313 313 313 313 314 317 316 316 315 314 316 317 317 318 318 318 318 318 319 319 319 319 319
300 300 301 301 303 304 305 305 305 306 307 307 307 307 307 308 308 308 308 309 309 309 311 312 313 313 314 312 312 313 314 315 316 314 313 314 315 316 316 316 316 315 315 315 315 315 315 315 316 316 316 316 317 318
302 303 303 303 304 305 306 306 306 306 307 307 308 308 309 308 308 308 308 308 309 310 311 311 311 312 313 314 314 316 317 317 319 317 316 316 314 314 315 314 314 315 314 314 314 314 314 314 314 314 313 315 316 316
303 303 303 303 304 304 305 307 307 307 307 307 307 309 310 310 310 310 311 311 311 310 311 311 313 314 315 316 317 318 319 318 317 317 314 314 315 316 315 315 314 314 313 314 313 314 313 313 313 312 313 314 313 314
303 302 302 302 302 301 303 304 305 305 306 306 307 308 308 309 310 308 309 308 308 309 310 311 313 314 315 316 319 318 317 318 317 317 317 316 316 315 316 315 314 313 313 313 313 312 313 313 312 312 312 312 312 312
302 302 302 301 301 302 302 304 303 306 308 307 307 304 304 305 306 305 308 311 314 316 318 318 318 318 317 316 316 318 317 318 316 315 315 315 314 314 315 314 314 313 312 310 310 311 312 312 312 312 312 312 312 312
306 306 305 306 305 307 308 310 308 307 310 310 314 317 317 310 314 316 315 314 315 316 317 317 317 315 315 315 316 317 316 315 314 314 315 314 313 313 313 313 313 313 312 311 310 310 310 310 311 311 311 311 311 311
312 314 314 317 318 319 318 317 316 317 317 317 317 318 317 316 317 317 316 315 314 315 315 315 314 314 313 314 314 314 314 314 313 313 312 312 311 312 312 312 312 312 313 313 312 311 311 310 310 310 310 310 310 309
318 318 318 318 318 319 318 317 317 317 317 318 317 315 315 315 315 314 312 313 313 312 312 313 313 313 313 313 312 312 312 312 312 313 313 313 312 312 312 312 312 312 311 311 311 311 311 311 311 310 310 310 310 309
317 318 316 314 314 314 316 316 316 316 316 315 315 315 314 314 315 314 314 314 314 314 314 314 314 314 314 314 314 314 314 314 314 313 312 312 312 313 313 313 312 311 311 312 312 311 311 311 311 311 311 311 311 311
315 315 315 315 314 314 314 314 314 314 313 314 315 316 314 314 314 314 314 314 314 314 314 314 314 313 313 313 313 313 312 312 312 311 310 310 309 309 307 307 307 308 308 309 310 310 311 311 311 310 310 310 309 309
315 315 315 315 316 316 314 314 315 314 314 314 314 314 313 314 314 314 314 315 315 314 314 314 313 313 312 312 312 311 311 310 308 307 307 306 304 303 303 303 303 303 304 304 305 305 306 306 308 309 310 310 310 310
315 315 315 315 315 315 315 315 314 313 314 314 313 314 314 314 315 314 315 315 315 314 313 312 312 312 311 311 310 309 308 307 305 304 303 302 302 302 302 302 301 303 303 303 303 304 305 305 306 306 306 306 307 307
317 316 316 316 316 315 315 316 316 316 315 314 314 314 315 315 315 315 315 314 314 313 312 311 311 310 309 308 307 306 305 305 303 303 301 300 301 300 300 300 300 301 301 301 301 301 302 303 305 306 306 307 307 308
317 317 317 317 316 317 317 317 317 317 317 316 315 315 315 315 316 315 315 314 312 311 311 310 308 307 305 304 304 304 304 303 302 300 298 298 297 298 299 299 300 300 300 300 300 300 300 301 302 302 302 302 303 303
Wind_Speed
22 22 20 18 17 19 18 16 14 15 14 13 11 10 9 11 9 6 4 8 6 7 9 4 6 7 7 5 7 9 7 8 7 10 11 11 13 13 21 15 9 8 15 15 15 19 19 5 13 14 6 5 9 6
21 22 19 17 18 15 15 16 14 15 13 13 11 9 8 8 8 7 3 8 9 8 8 11 10 9 8 3 7 6 4 4 8 5 4 6 7 6 8 12 8 14 5 4 6 5 11 13 11 8 7 7 7 10
20 20 19 18 17 16 15 14 14 13 13 13 11 8 7 6 6 7 5 9 11 9 11 6 2 1 2 4 7 6 4 4 2 5 7 4 4 8 6 12 4 11 3 5 5 9 9 6 7 8 9 10 12 13
20 18 17 17 16 15 15 14 13 13 13 11 9 8 7 6 5 6 3 8 7 8 7 6 3 3 5 4 5 8 4 4 6 7 7 4 5 3 9 7 7 5 1 4 10 5 1 10 9 11 9 8 9 11
17 18 21 21 19 16 15 13 12 12 12 10 8 8 7 6 5 5 6 5 3 5 8 6 2 1 3 2 3 5 4 4 6 6 5 5 6 4 9 6 7 9 6 6 3 8 7 8 10 10 10 9 10 10
17 18 18 19 18 17 15 15 15 10 10 10 8 7 8 6 4 3 3 2 2 6 6 3 3 2 1 2 3 5 5 5 5 4 5 5 1 4 6 8 10 3 8 9 7 6 7 9 6 6 10 11 10 10
19 17 16 17 17 18 16 16 13 11 8 11 8 8 7 5 5 7 3 3 3 5 4 4 5 4 3 3 5 6 5 5 6 6 6 9 4 5 7 10 9 3 4 6 9 9 12 8 10 12 13 12 12 12
15 16 15 14 15 16 16 14 13 12 10 9 7 7 6 4 3 3 6 6 4 3 4 4 2 5 5 7 6 4 6 6 7 6 3 6 6 7 4 3 6 8 8 10 13 11 11 12 13 15 16 17 15 15
14 15 16 15 15 15 15 15 14 13 10 7 7 7 5 2 4 3 6 6 4 4 7 3 4 4 4 3 1 5 4 5 5 5 8 5 6 6 5 6 8 6 7 7 10 11 13 13 14 15 14 16 18 21
17 17 13 15 15 12 16 16 14 14 11 10 9 5 4 3 5 3 1 5 7 7 6 6 3 1 4 3 5 1 4 4 4 8 3 4 9 17 16 10 6 6 8 10 13 12 11 13 14 16 17 17 17 18
10 13 13 13 13 12 16 15 14 17 14 9 7 4 4 6 4 2 3 5 6 3 7 8 4 3 2 5 2 2 3 2 3 4 3 3 4 1 9 3 3 5 7 10 13 15 17 18 19 20 22 21 20 18
9 9 17 16 13 13 12 17 20 19 10 9 4 5 7 4 4 3 4 3 4 3 5 6 7 8 5 2 4 3 3 2 5 4 3 3 9 9 6 4 5 8 11 14 16 18 21 22 23 23 23 22 19 16
6 11 16 15 16 14 20 18 19 11 6 5 3 5 3 2 3 5 6 4 4 6 5 6 6 8 5 5 2 2 3 5 3 3 3 3 12 15 12 10 14 17 20 22 23 23 24 26 25 24 22 18 16 13
8 14 17 14 18 19 19 19 19 12 6 2 2 2 2 3 5 6 4 4 8 2 7 9 4 2 1 4 2 2 1 2 3 4 4 9 19 21 21 21 25 26 27 29 29 27 27 25 24 22 18 16 12 12
13 14 15 18 18 16 16 19 18 10 2 1 2 3 6 5 4 2 5 4 4 2 6 4 4 2 3 2 2 3 3 3 4 4 9 23 26 25 27 25 26 27 26 28 28 28 25 21 15 13 10 9 9 9
16 18 14 19 19 20 19 19 11 5 1 1 2 5 5 5 4 7 6 5 7 11 6 5 3 1 1 3 0 4 3 1 5 8 20 24 28 30 22 17 14 14 17 20 17 16 12 12 9 7 7 7 9 10
13 16 19 22 22 21 21 12 5 3 2 2 5 9 3 3 2 3 8 5 4 5 4 3 4 5 2 1 3 3 4 5 14 18 16 13 16 18 11 11 9 10 14 17 12 7 2 3 4 5 5 5 4 6
28 25 24 24 23 20 9 3 3 3 4 8 5 4 3 2 1 1 8 5 4 2 2 1 2 3 2 2 2 4 7 14 18 13 14 12 8 14 16 16 14 12 13 15 13 10 9 9 6 5 4 4 3 6
16 20 22 20 12 5 4 5 3 3 7 5 7 2 2 3 4 3 6 6 2 1 1 1 1 2 2 5 8 10 11 12 17 10 8 9 8 10 7 8 15 13 5 8 9 9 9 6 5 3 3 4 2 4
15 16 14 9 3 1 3 3 4 4 3 2 2 3 5 4 5 6 5 6 6 3 3 3 3 1 5 8 11 13 15 12 6 7 5 6 5 4 6 6 9 15 9 11 8 8 9 10 8 7 6 5 2 6
11 10 4 1 2 3 2 2 4 1 3 2 2 3 3 4 7 9 8 7 7 5 6 6 7 11 9 10 13 13 13 10 7 8 6 9 5 7 8 9 9 11 12 12 13 9 5 10 5 4 5 6 5 3
3 6 3 4 2 3 3 2 1 1 1 1 2 3 2 5 6 6 5 3 4 12 12 13 12 10 12 11 9 10 8 7 9 10 10 7 9 7 11 12 11 9 14 10 11 13 11 7 6 8 9 3 5 8
5 8 5 4 4 3 3 4 3 2 2 3 4 2 1 0 0 1 2 3 7 18 16 15 15 14 15 12 10 6 4 5 5 3 6 9 6 9 10 11 11 11 13 12 11 13 12 10 12 6 8 11 9 10
2 3 5 6 7 3 4 5 4 3 3 1 3 3 4 6 7 3 3 4 4 2 3 4 4 3 2 2 1 1 3 5 5 5 6 8 8 9 10 10 10 10 10 11 11 10 10 11 10 11 10 11 11 12
4 4 5 8 9 8 6 7 7 7 7 7 4 4 6 12 5 2 2 2 5 7 4 1 1 6 7 7 5 2 4 5 7 8 5 7 10 12 12 11 12 10 8 10 11 11 11 11 11 12 12 13 14 14
3 2 2 8 8 5 3 5 2 3 4 4 4 5 3 5 4 5 3 5 8 10 8 7 5 4 4 4 5 7 9 9 9 11 12 13 13 14 15 15 15 14 9 11 14 15 15 14 14 14 15 15 16 17
4 5 4 1 1 2 4 9 9 4 6 3 2 3 4 5 4 7 12 12 12 10 7 6 7 8 10 9 8 8 9 9 8 11 12 13 11 11 11 13 15 15 15 18 19 20 20 20 19 18 18 17 17 17
5 7 11 18 19 18 15 10 12 13 7 8 8 8 7 7 9 11 10 9 8 9 10 10 7 7 7 8 8 10 12 13 12 13 15 15 14 15 13 15 17 20 21 20 19 19 19 21 22 22 22 22 22 21
14 18 18 15 15 17 18 19 19 21 21 21 16 13 16 16 11 9 7 8 10 11 12 12 10 10 10 11 11 14 14 17 16 17 18 19 19 18 19 21 21 22 22 24 24 25 23 23 24 25 27 29 28 29
15 16 18 19 17 14 17 16 17 17 16 17 16 15 15 13 10 8 10 12 12 12 14 12 12 12 13 15 17 18 16 15 16 17 19 20 21 22 21 21 22 22 22 22 23 24 24 24 25 25 25 25 26 27
10 14 16 15 12 10 10 11 11 11 10 10 10 12 13 12 13 13 12 10 11 12 14 14 14 14 16 18 19 20 20 18 18 17 17 19 19 20 21 22 20 21 22 22 22 23 23 23 23 24 25 27 27 27
8 6 7 4 5 7 4 4 6 6 6 6 7 9 8 6 8 9 11 13 14 15 14 15 15 17 18 18 17 18 20 20 20 20 20 21 20 22 22 20 19 20 20 21 21 21 21 22 22 22 23 24 26 25
5 6 8 6 7 4 4 3 2 1 2 2 4 5 6 6 5 4 6 12 15 15 13 14 17 18 18 19 21 21 20 20 21 22 24 26 27 24 24 18 18 19 19 21 21 21 20 20 20 19 19 17 16 17
Wind_Direction
272 274 275 276 278 270 270 274 279 288 297 300 304 303 305 327 341 2 305 337 0 295 315 349 351 333 313 273 283 35 260 209 266 248 260 239 247 236 236 230 219 216 210 220 246 253 247 145 164 219 55 53 36 17
267 265 270 270 270 267 266 264 271 283 291 297 299 297 294 318 327 0 330 319 316 274 287 309 290 280 253 299 328 307 3 11 11 285 287 302 281 241 198 268 169 214 352 8 0 51 50 50 90 52 358 5 350 323
269 265 264 267 263 261 261 262 265 269 279 288 296 290 278 296 309 327 314 334 327 276 281 248 182 273 5 256 241 284 109 357 65 342 323 315 301 342 262 246 116 298 350 282 302 116 67 53 62 30 15 354 331 310
269 268 267 260 261 259 255 261 266 267 267 275 290 279 261 273 298 314 336 307 331 294 275 128 153 317 291 265 224 215 297 314 297 306 289 287 277 14 277 326 300 37 328 260 258 219 249 96 37 6 3 354 327 312
267 262 257 256 253 253 252 247 248 257 257 259 281 272 255 253 284 303 307 288 326 324 324 351 293 302 22 124 173 214 246 277 270 241 229 239 276 341 261 301 278 273 287 268 348 35 342 55 2 5 7 350 330 317
263 261 258 252 248 242 245 244 239 241 253 250 265 265 248 242 276 297 236 253 323 333 287 249 88 195 259 262 211 213 230 249 245 265 247 269 239 279 274 241 246 36 50 27 40 3 345 324 326 4 348 339 326 313
262 260 258 248 245 240 241 238 242 229 238 249 251 254 234 234 236 260 356 211 293 342 265 264 186 156 213 190 182 200 214 241 253 236 235 259 218 215 262 262 279 338 313 295 293 315 306 310 307 309 310 311 309 301
260 244 247 248 240 233 230 220 226 224 220 237 240 241 210 243 271 242 230 263 281 265 254 268 129 179 190 203 168 192 195 203 207 255 239 249 241 209 267 262 265 290 303 281 278 282 296 300 301 298 299 298 290 290
242 242 239 242 228 229 216 206 219 205 205 213 217 190 209 213 215 125 259 273 206 261 301 261 245 125 181 217 36 178 235 209 153 234 233 229 229 225 241 251 266 266 263 295 299 299 297 292 293 295 297 292 284 277
236 236 235 214 215 219 202 206 193 180 181 188 184 190 214 175 244 283 313 177 198 203 231 257 7 177 252 179 163 252 193 267 228 197 222 241 251 255 237 233 252 268 283 305 297 296 310 304 298 298 294 294 287 281
223 218 217 202 194 205 204 200 181 169 173 183 197 193 153 137 146 195 282 198 184 236 207 236 280 316 146 293 74 298 357 348 252 153 251 261 231 75 104 59 0 308 298 294 293 295 294 299 301 302 297 288 283 280
199 194 179 187 196 183 176 170 169 164 182 191 170 141 138 168 169 235 198 214 233 233 143 217 176 237 105 259 272 152 269 217 256 51 266 255 80 73 65 31 324 303 299 299 296 294 290 289 291 292 293 288 275 278
164 190 174 178 177 179 170 166 164 186 175 169 196 175 163 138 183 195 183 203 207 162 152 187 175 191 166 229 241 257 223 232 12 236 243 359 64 41 6 325 313 304 297 292 290 290 293 288 286 278 279 273 268 260
147 156 171 167 167 162 161 164 168 162 155 160 160 165 208 166 212 213 213 110 87 354 88 79 202 31 130 220 309 237 289 317 269 255 197 48 3 341 329 313 299 295 294 292 287 282 288 285 278 270 257 254 248 242
156 154 154 160 159 156 160 164 167 156 113 132 245 218 198 205 219 196 24 80 123 153 146 176 228 135 232 155 225 1 227 247 252 357 8 344 333 335 323 307 304 292 286 289 282 278 275 268 267 250 234 219 201 175
124 139 150 160 163 161 157 155 153 159 29 312 242 254 216 173 155 161 172 153 174 152 180 174 236 268 230 62 253 250 249 323 40 350 337 336 325 316 312 327 314 301 305 302 281 271 253 231 219 193 168 156 159 168
123 134 141 142 150 152 146 143 135 173 226 259 235 228 268 145 217 151 132 157 177 179 215 214 197 175 147 202 231 264 17 12 359 339 327 347 359 357 334 339 359 356 347 340 305 299 178 165 181 191 176 180 178 181
118 121 132 134 133 138 147 163 185 204 246 233 246 240 172 46 63 182 134 184 208 172 243 345 345 231 185 270 25 14 1 337 337 309 291 307 0 29 51 50 48 51 46 24 29 45 53 59 71 93 123 127 193 188
123 131 132 130 136 146 160 184 203 252 231 204 217 174 161 166 167 210 189 193 183 241 170 140 249 233 286 19 349 334 324 314 307 304 304 322 266 254 338 27 37 20 24 23 17 25 28 30 27 11 247 217 162 161
123 132 139 137 134 162 193 189 214 241 268 278 249 194 192 186 201 194 199 208 211 258 280 245 228 174 287 301 288 286 295 293 275 272 259 311 320 260 11 347 339 351 353 8 0 21 358 9 357 10 1 11 286 235
123 138 150 195 311 274 271 248 233 286 322 297 336 233 248 220 218 215 217 217 229 230 250 261 283 263 255 280 288 284 282 278 258 256 296 319 328 338 331 333 341 349 339 346 334 337 354 334 336 307 304 287 291 357
205 213 254 262 274 284 266 248 290 345 332 356 301 233 221 224 221 241 267 255 242 241 253 252 258 279 283 287 283 286 284 267 247 234 256 275 287 327 328 323 329 327 329 327 320 315 321 313 329 313 322 244 314 260
242 229 244 227 218 230 242 220 198 212 202 200 165 160 288 323 94 132 26 251 262 266 264 250 253 261 260 272 285 291 288 272 290 297 313 295 316 307 303 301 306 307 309 321 312 307 308 313 301 277 280 280 273 262
248 205 199 203 214 235 195 200 203 221 196 161 143 172 190 180 154 190 237 217 290 178 178 180 197 181 202 222 117 108 316 321 346 312 321 290 286 270 283 307 312 318 323 317 315 308 305 301 299 289 282 276 274 272
231 216 218 224 190 193 205 167 189 186 203 210 204 125 140 162 172 98 59 348 65 92 107 131 23 20 26 41 124 131 13 338 328 326 290 326 322 317 314 314 312 307 309 316 321 318 311 304 295 288 283 280 278 279
261 149 280 347 350 11 63 119 146 116 135 99 90 105 154 89 73 61 104 96 67 56 55 42 74 62 12 3 14 2 354 347 340 333 331 324 317 312 314 313 308 305 314 315 308 305 305 305 304 301 295 289 284 276
35 37 49 51 204 122 56 59 91 101 59 55 98 107 69 73 75 59 54 53 53 50 42 25 23 18 15 12 5 3 359 354 354 342 333 333 326 323 317 319 315 309 309 307 301 297 296 295 294 293 293 294 294 292
25 352 57 54 55 67 68 68 53 52 51 43 73 60 67 93 83 70 60 49 49 48 47 46 41 38 29 19 4 353 345 335 330 329 328 322 318 323 331 318 317 317 308 300 297 295 291 290 288 287 287 288 288 287
67 70 70 64 75 68 62 60 62 65 75 84 87 87 88 91 92 74 47 39 37 33 29 20 16 11 7 1 353 346 338 338 340 332 328 325 325 321 318 315 311 307 304 301 300 306 300 296 292 288 285 286 289 291
72 74 74 69 67 67 66 66 72 76 77 89 91 97 87 75 66 52 55 38 29 21 13 6 4 2 353 348 343 338 336 334 333 331 326 324 321 320 320 319 319 319 316 313 309 305 301 299 296 292 289 286 285 281
73 65 58 71 74 57 51 59 69 78 88 95 87 96 106 103 82 52 43 25 12 9 7 360 358 353 348 343 339 335 331 329 328 325 319 318 318 318 317 320 322 318 317 317 315 313 311 308 305 301 298 297 296 294
50 45 68 74 84 82 72 46 59 43 49 68 90 96 100 104 91 46 19 10 6 359 357 354 349 344 339 334 332 327 323 322 323 319 319 318 316 318 319 324 324 319 321 322 321 318 314 312 319 324 326 330 333 324
348 13 354 26 17 5 3 60 325 50 2 27 47 44 35 56 66 29 357 358 353 348 344 343 340 338 336 335 331 328 325 321 321 323 325 324 321 319 327 324 323 326 327 326 327 324 322 321 320 324 327 327 324 333